Wind_Speed
23 20 19 20 22 21 21 21 21 20 22 23 21 21 22 23 22 21 21 21 21 20 19 20 21 21 22 22 22 23 23 23 24 25 25 25 25 25 26 26 26 27 26 25
24 21 20 20 19 20 21 21 21 21 23 24 23 23 24 24 23 23 22 21 21 20 21 21 22 22 22 23 23 24 24 24 25 26 27 27 27 27 27 27 27 27 27 26
22 21 23 22 20 20 20 20 21 21 23 26 24 24 24 23 23 24 23 22 21 21 22 22 22 23 23 24 25 25 26 26 27 28 28 28 28 27 27 27 27 28 27 27
24 23 25 24 22 22 22 22 22 24 24 27 29 27 27 27 27 25 22 23 22 22 23 22 23 24 24 25 26 27 27 28 28 29 29 29 28 28 27 28 28 28 27 27
25 24 24 24 26 23 22 24 24 25 26 27 29 28 29 28 27 24 24 24 24 24 24 24 25 25 25 26 27 27 28 28 29 29 29 29 29 29 29 29 28 28 27 27
27 26 24 24 26 25 25 27 27 27 28 27 27 28 29 29 28 27 26 26 25 25 25 26 27 28 28 28 28 29 29 30 30 30 30 30 30 30 30 30 30 29 29 29
29 28 27 25 26 25 26 29 28 28 29 29 28 28 29 28 28 27 26 26 26 26 27 27 28 29 29 29 29 30 31 31 31 32 32 32 32 31 32 31 31 31 30 30
28 29 30 28 27 29 29 29 29 29 29 30 29 29 28 28 28 28 27 27 28 28 28 29 29 30 30 31 31 32 32 32 33 33 34 34 33 33 32 32 31 31 32 31
29 30 31 31 31 29 28 28 29 30 30 30 30 30 29 30 30 29 29 29 30 30 30 31 31 32 33 33 33 34 34 34 34 35 34 34 34 33 32 32 32 32 31 31
31 33 34 34 31 31 30 30 30 29 30 30 30 31 31 31 31 31 32 31 32 32 31 31 32 33 33 34 34 35 35 35 35 34 33 33 33 33 33 33 33 32 32 32
34 36 35 34 33 33 32 31 31 31 31 31 31 32 33 33 32 32 32 32 32 32 32 32 33 33 34 34 34 34 34 33 34 34 34 34 34 33 33 33 33 33 33 33
35 36 36 35 34 34 34 33 32 31 31 32 33 34 33 33 32 32 32 32 32 32 33 34 34 34 34 35 34 34 34 34 34 34 34 34 34 34 33 32 32 32 33 33
34 34 35 35 33 33 33 33 33 32 31 32 32 33 33 33 33 32 32 32 32 33 33 33 34 34 34 34 34 34 34 34 34 34 34 34 34 33 32 31 31 31 31 31
32 32 33 34 33 33 33 33 33 32 32 31 31 32 32 32 32 33 33 32 32 33 33 33 33 33 34 34 34 34 34 34 34 34 34 33 32 32 31 31 30 30 30 31
31 32 33 34 34 34 33 32 32 32 31 32 32 32 32 32 32 32 32 33 32 33 33 33 33 33 34 34 34 33 33 33 33 33 32 32 31 31 31 30 30 30 30 30
31 31 31 31 32 33 32 31 31 30 31 32 32 31 31 31 31 32 32 32 33 33 33 32 32 33 33 33 33 32 32 32 31 31 31 31 31 31 31 31 31 31 31 30
29 29 30 30 30 30 31 30 29 30 31 31 31 30 31 31 31 32 33 33 33 33 33 32 32 32 32 31 31 31 31 31 30 30 30 31 31 31 31 32 32 32 31 29
28 27 27 28 29 30 29 30 29 28 29 30 30 30 31 31 31 32 32 32 33 33 32 31 31 30 31 31 31 30 30 30 30 30 30 30 30 31 31 31 31 31 30 29
26 26 25 27 28 28 28 28 29 29 29 30 30 29 30 30 30 30 30 31 31 31 30 30 30 31 31 31 31 30 30 30 30 30 30 29 30 30 31 31 31 31 30 29
26 26 25 25 26 26 26 26 27 28 29 29 29 29 29 29 30 30 30 29 30 30 29 30 30 30 30 30 30 29 29 30 30 29 29 29 29 30 30 31 31 30 30 29
24 25 26 26 25 25 26 26 27 27 27 28 28 28 28 28 29 29 29 29 29 29 29 29 29 30 29 29 29 29 29 28 28 28 28 28 28 29 29 29 29 28 28 27
24 23 23 24 25 25 25 26 26 26 27 27 27 27 28 28 28 28 28 28 28 28 28 28 28 28 28 28 28 27 27 27 27 27 28 28 29 29 28 27 27 26 25 25
23 23 24 24 24 24 24 25 25 26 26 25 26 27 27 27 27 27 26 26 27 27 27 26 26 26 27 27 26 26 26 26 27 27 27 27 27 27 26 25 24 24 22 22
23 23 23 23 23 23 23 24 24 24 24 24 25 25 25 26 26 25 25 25 25 25 25 25 25 25 26 25 25 25 26 26 27 26 26 25 25 24 24 23 22 21 21 20
22 23 23 23 23 23 23 23 23 23 24 23 23 23 23 24 24 24 24 25 25 25 25 24 24 25 25 25 25 25 25 25 25 25 25 24 24 23 23 22 21 20 20 20
20 21 22 22 22 22 22 22 22 22 22 22 22 23 23 23 23 24 24 25 25 25 24 24 24 24 24 24 25 25 25 25 25 24 24 23 21 21 21 20 19 19 19 19
18 19 19 19 19 20 20 20 20 21 21 21 21 21 21 22 22 23 24 24 23 23 23 23 23 23 23 23 24 24 24 23 23 22 22 21 20 19 19 19 18 18 18 18
Wind_Direction
235 238 247 251 250 247 245 242 246 253 264 269 268 263 263 267 272 280 280 280 282 282 283 285 284 284 287 289 290 291 293 295 297 300 301 300 299 299 299 299 300 300 300 298
238 234 241 249 249 250 247 245 249 251 258 266 264 262 263 268 272 274 280 281 281 282 285 285 283 284 287 288 288 290 292 293 296 298 298 299 298 296 296 297 298 299 300 298
238 235 240 240 243 247 246 246 248 250 253 260 261 261 264 269 273 277 277 278 279 282 284 283 285 286 287 287 289 291 293 295 295 296 297 298 297 296 296 296 297 298 298 297
239 238 242 242 242 243 244 240 244 248 250 256 259 263 265 266 271 276 278 278 280 282 281 282 285 286 286 289 290 291 293 295 296 295 295 296 297 297 297 297 297 297 296 295
239 243 242 244 242 242 242 243 247 251 251 258 263 263 265 267 270 273 278 276 277 279 281 284 284 286 287 289 290 291 293 294 294 295 295 295 296 296 296 295 296 296 295 295
240 243 245 245 246 245 248 247 246 250 253 257 261 263 265 269 272 274 274 274 277 278 281 282 283 285 288 290 291 291 291 292 293 294 295 295 295 294 293 292 293 293 293 293
241 243 243 244 244 245 246 250 249 252 257 260 263 266 269 269 272 274 274 275 277 278 279 282 284 284 285 288 290 291 292 292 292 292 293 293 294 294 293 293 291 291 291 291
240 240 241 242 244 246 248 252 256 259 259 261 263 266 267 270 273 275 275 275 277 279 280 281 284 285 286 289 291 292 292 292 292 292 292 292 293 293 292 292 293 292 291 290
239 239 242 245 245 248 253 255 256 258 260 262 263 265 265 268 270 273 274 276 277 278 280 282 283 286 287 290 291 291 290 291 292 292 291 291 292 291 290 291 293 292 291 290
241 244 245 246 248 250 254 257 258 259 261 263 264 264 266 268 271 271 272 275 278 280 281 283 284 285 287 288 289 289 289 291 292 291 290 290 289 288 287 289 290 291 289 289
246 247 248 247 250 253 257 258 258 259 263 263 264 264 265 266 268 271 272 275 278 280 281 282 284 285 286 288 289 289 289 291 291 291 290 290 290 289 290 290 290 288 289 290
247 248 249 250 250 253 256 258 259 260 262 262 263 265 265 266 268 270 272 275 277 280 282 283 284 286 287 288 288 288 288 289 290 290 290 290 289 289 290 290 291 290 290 291
246 247 250 251 252 255 256 257 259 260 261 261 262 264 266 267 268 270 272 274 277 280 282 284 285 286 287 287 288 288 289 289 289 290 290 291 291 290 290 291 292 290 290 290
246 248 250 253 255 256 256 258 259 261 263 263 264 266 267 267 268 270 272 274 277 280 283 285 285 286 287 288 288 288 289 290 290 291 291 290 290 289 289 291 292 292 292 291
248 248 250 252 254 256 257 258 258 260 262 262 264 266 268 269 270 272 274 275 278 281 283 285 285 287 288 288 288 288 289 291 291 291 290 290 291 290 290 291 292 292 292 292
249 250 251 252 254 254 258 263 263 261 262 264 264 265 268 271 272 273 274 276 278 281 283 285 286 287 287 288 288 289 290 290 291 290 290 291 291 290 290 290 291 292 292 291
249 251 254 255 255 257 260 263 264 263 263 264 265 267 269 271 273 274 275 277 279 281 283 284 285 286 287 288 288 289 291 291 291 291 291 291 291 290 289 290 291 291 290 289
253 252 253 254 255 258 260 261 263 265 265 265 268 269 269 271 273 274 275 276 279 280 281 282 284 285 287 289 289 290 291 292 292 292 292 292 291 290 289 290 291 291 289 287
252 253 256 257 258 261 262 262 263 264 266 267 269 271 272 273 273 274 275 277 279 279 280 281 284 286 288 288 288 289 290 291 292 293 293 293 292 291 290 290 291 290 289 287
252 254 257 259 260 261 261 263 264 265 267 269 271 272 273 274 275 276 276 278 279 280 280 282 284 286 287 289 289 290 291 292 292 292 293 293 293 293 292 292 291 290 288 286
252 255 257 260 261 262 261 262 263 265 268 271 272 273 274 275 277 278 279 279 280 280 281 282 284 286 288 289 289 291 293 293 293 293 293 294 294 294 295 294 293 292 288 286
253 257 259 262 264 265 265 265 266 267 268 270 271 272 274 274 276 279 279 279 280 282 283 284 284 285 287 287 288 291 292 293 293 294 294 294 295 296 296 295 295 293 290 287
255 258 259 262 263 264 265 266 266 268 269 270 271 272 273 274 276 278 278 279 280 281 282 283 285 286 287 289 290 291 292 293 294 295 295 296 297 298 297 296 294 292 288 286
256 257 260 262 264 265 266 266 268 270 272 273 274 275 275 275 277 278 279 280 280 281 282 283 285 286 287 287 289 290 292 293 295 295 296 298 299 298 297 296 293 291 288 286
258 258 259 262 265 267 269 269 269 272 275 274 274 275 276 276 276 277 278 280 281 282 283 283 284 285 284 287 289 290 292 294 295 295 295 296 297 297 297 295 294 292 290 287
256 255 257 261 265 267 269 270 272 273 273 272 274 276 276 276 277 278 279 280 282 281 281 281 283 284 285 287 288 289 290 292 293 294 294 295 293 294 296 297 295 294 291 289
258 257 259 261 265 267 269 272 273 273 273 273 275 277 278 280 281 282 282 282 283 283 282 282 284 285 286 288 288 289 291 292 292 293 294 294 293 294 294 295 295 293 291 290
Height
5863 5866 5868 5869 5871 5872 5874 5875 5877 5878 5876 5874 5873 5873 5873 5873 5873 5873 5873 5873 5874 5873 5872 5872 5872 5871 5870 5869 5868 5867 5866 5865 5863 5862 5860 5859 5858 5856 5854 5853 5851 5849 5847 5845
5857 5860 5862 5864 5866 5867 5869 5870 5870 5872 5872 5869 5869 5869 5868 5868 5868 5869 5869 5869 5869 5869 5868 5868 5867 5865 5865 5864 5863 5862 5860 5859 5858 5856 5855 5854 5852 5850 5848 5847 5845 5843 5841 5839
5850 5854 5856 5858 5861 5862 5864 5865 5866 5866 5866 5864 5863 5863 5863 5863 5863 5863 5864 5864 5863 5863 5863 5862 5861 5861 5860 5859 5858 5856 5855 5854 5852 5851 5849 5848 5846 5844 5842 5840 5838 5836 5834 5832
5845 5848 5849 5854 5854 5855 5857 5858 5859 5858 5858 5858 5858 5858 5857 5858 5858 5858 5858 5859 5859 5858 5856 5856 5856 5855 5854 5853 5851 5850 5849 5847 5846 5844 5843 5841 5839 5837 5835 5833 5831 5829 5828 5826
5838 5840 5842 5846 5848 5849 5850 5851 5852 5852 5851 5851 5852 5852 5851 5851 5851 5852 5853 5853 5853 5853 5851 5851 5850 5848 5847 5846 5845 5843 5842 5841 5839 5837 5836 5834 5832 5830 5828 5826 5824 5822 5820 5819
5831 5833 5836 5840 5840 5841 5844 5843 5845 5844 5844 5845 5846 5846 5846 5846 5846 5846 5847 5846 5846 5846 5846 5845 5844 5842 5841 5840 5838 5837 5835 5834 5832 5830 5829 5827 5825 5823 5821 5819 5817 5815 5813 5811
5824 5826 5828 5830 5831 5834 5837 5835 5835 5836 5838 5838 5838 5839 5839 5839 5839 5840 5840 5840 5840 5840 5839 5838 5837 5836 5835 5833 5831 5830 5828 5826 5824 5822 5820 5819 5817 5814 5812 5810 5808 5807 5805 5804
5816 5819 5822 5822 5823 5826 5827 5828 5829 5830 5831 5831 5831 5831 5831 5832 5832 5832 5832 5833 5833 5833 5832 5831 5830 5828 5826 5825 5824 5822 5820 5819 5817 5814 5812 5810 5808 5806 5804 5802 5801 5799 5797 5796
5808 5811 5812 5813 5814 5816 5818 5820 5822 5823 5823 5824 5824 5824 5824 5824 5825 5826 5826 5826 5825 5824 5824 5823 5822 5821 5819 5818 5816 5814 5812 5810 5808 5806 5803 5801 5799 5797 5795 5794 5792 5790 5789 5787
5799 5801 5804 5806 5807 5809 5811 5813 5813 5814 5815 5816 5816 5817 5817 5817 5818 5818 5818 5818 5817 5817 5816 5815 5814 5813 5811 5809 5807 5805 5803 5801 5799 5797 5794 5793 5791 5789 5787 5785 5783 5782 5780 5778
5790 5793 5795 5797 5799 5801 5802 5804 5805 5806 5807 5808 5809 5809 5810 5810 5810 5810 5810 5810 5809 5809 5808 5807 5806 5804 5802 5800 5798 5796 5794 5792 5790 5788 5786 5784 5782 5780 5778 5776 5774 5772 5770 5769
5781 5785 5787 5789 5791 5794 5795 5796 5797 5798 5799 5800 5800 5800 5801 5802 5802 5802 5802 5801 5801 5800 5799 5798 5797 5795 5793 5791 5789 5787 5785 5783 5781 5778 5777 5774 5773 5771 5769 5767 5765 5763 5761 5759
5774 5776 5779 5780 5783 5785 5787 5788 5789 5790 5790 5791 5792 5792 5793 5793 5793 5793 5793 5793 5792 5791 5790 5789 5787 5786 5784 5782 5780 5777 5775 5773 5771 5769 5767 5765 5763 5761 5759 5758 5756 5754 5752 5750
5767 5769 5770 5772 5775 5777 5779 5780 5781 5782 5782 5782 5783 5784 5784 5785 5785 5785 5785 5784 5783 5782 5781 5779 5778 5776 5774 5772 5770 5768 5766 5764 5762 5760 5757 5755 5753 5752 5750 5749 5747 5745 5743 5741
5759 5761 5763 5765 5767 5768 5769 5770 5771 5772 5772 5773 5774 5775 5776 5776 5776 5776 5775 5774 5773 5773 5772 5770 5769 5767 5764 5762 5760 5758 5756 5755 5753 5750 5748 5746 5745 5743 5741 5739 5737 5736 5734 5732
5752 5754 5755 5757 5759 5760 5760 5761 5763 5763 5764 5765 5765 5766 5767 5767 5767 5767 5765 5764 5764 5763 5762 5761 5759 5757 5755 5753 5751 5749 5747 5745 5743 5741 5739 5738 5736 5734 5732 5730 5728 5726 5724 5722
5744 5745 5747 5749 5751 5752 5753 5753 5753 5754 5755 5755 5756 5756 5757 5758 5758 5757 5756 5755 5755 5754 5753 5751 5750 5748 5746 5744 5742 5740 5738 5736 5734 5732 5730 5728 5726 5724 5722 5720 5718 5716 5715 5713
5736 5737 5739 5741 5742 5744 5745 5746 5746 5746 5746 5746 5746 5747 5747 5748 5748 5748 5747 5746 5746 5744 5743 5742 5740 5739 5737 5735 5733 5731 5730 5728 5726 5723 5721 5719 5717 5715 5713 5711 5709 5707 5704 5703
5728 5730 5732 5733 5735 5735 5736 5737 5737 5738 5738 5738 5738 5738 5738 5739 5739 5738 5738 5737 5736 5735 5734 5733 5731 5730 5728 5726 5724 5722 5721 5719 5717 5714 5712 5710 5708 5706 5704 5701 5699 5697 5695 5693
5723 5724 5725 5727 5727 5728 5729 5729 5729 5730 5730 5730 5730 5730 5730 5730 5730 5729 5728 5727 5727 5726 5725 5724 5722 5721 5720 5718 5716 5714 5712 5710 5708 5706 5703 5701 5699 5696 5694 5691 5689 5687 5685 5683
5716 5717 5718 5719 5719 5720 5721 5721 5721 5722 5722 5722 5722 5722 5722 5721 5721 5720 5719 5718 5718 5717 5716 5714 5713 5712 5711 5709 5707 5705 5703 5701 5699 5697 5695 5692 5690 5687 5685 5682 5680 5677 5676 5674
5709 5710 5711 5712 5712 5713 5713 5713 5714 5714 5714 5714 5713 5713 5713 5712 5712 5711 5710 5709 5709 5708 5707 5706 5704 5703 5702 5700 5699 5697 5695 5693 5691 5688 5686 5684 5681 5679 5676 5673 5671 5669 5667 5666
5702 5703 5704 5705 5705 5706 5706 5706 5706 5706 5705 5705 5705 5705 5704 5704 5703 5703 5702 5701 5700 5700 5698 5697 5696 5695 5694 5692 5691 5689 5687 5685 5683 5681 5678 5676 5673 5671 5668 5666 5664 5662 5660 5659
5695 5697 5697 5698 5698 5699 5699 5699 5699 5698 5698 5698 5697 5697 5696 5696 5695 5694 5694 5693 5692 5691 5690 5689 5688 5687 5686 5685 5683 5681 5680 5678 5675 5673 5671 5668 5666 5663 5661 5659 5657 5655 5654 5653
5689 5690 5691 5691 5692 5692 5692 5691 5691 5691 5691 5690 5690 5690 5689 5688 5687 5687 5686 5685 5684 5683 5683 5681 5680 5679 5678 5677 5676 5674 5672 5670 5668 5665 5663 5661 5659 5657 5655 5653 5651 5650 5648 5647
5683 5683 5684 5685 5685 5685 5684 5684 5684 5684 5684 5683 5683 5682 5681 5680 5679 5679 5678 5677 5676 5676 5675 5674 5673 5672 5671 5669 5668 5666 5664 5663 5660 5658 5656 5654 5652 5650 5648 5646 5645 5644 5643 5641
5677 5677 5677 5678 5678 5678 5678 5678 5678 5677 5677 5676 5676 5675 5674 5674 5672 5671 5671 5670 5669 5667 5667 5666 5666 5665 5663 5662 5661 5659 5657 5655 5653 5651 5649 5648 5646 5644 5643 5641 5639 5638 5637 5636